Weather History for Goodland, KS

Change the Weather History Date:

Wednesday, May 21, 2014

  Actual Average Record
Temperature  
Mean Temperature 66 °F 61 °F  
Max Temperature 81 °F 75 °F 97 °F (1925)
Min Temperature 51 °F 48 °F 28 °F (1915)
Degree Days  
Heating Degree Days 0 5  
Month to date heating degree days 203 170  
Since 1 July heating degree days 5952 5825  
Cooling Degree Days 1 1  
Month to date cooling degree days 8 19  
Year to date cooling degree days 13 23  
Growing Degree Days 18 (Base 50)    
Moisture  
Dew Point 51 °F    
Average Humidity 65    
Maximum Humidity 93    
Minimum Humidity 36    
Precipitation  
Precipitation 0.01 in 0.10 in 1.35 in (1944)
Month to date precipitation 0.21 1.83  
Year to date precipitation 2.00 5.36  
Snow  
Snow 0.00 in 0.00 in - ()
Month to date snowfall T 0.5  
Since 1 July snowfall 29.1 35.5  
Snow Depth 0.00 in    
Sea Level Pressure  
Sea Level Pressure 29.99 in    
Wind  
Wind Speed 14 mph (ENE)    
Max Wind Speed 24 mph    
Max Gust Speed 30 mph    
Visibility 10 miles    
Events Rain , Thunderstorm    
T = Trace of Precipitation, MM = Missing Value Source: NWS Daily Summary

Daily Weather History Graph

Daily Weather History Graph

Search for Another Location

Airport:

Trip Planner

Search our weather history database for the weather conditions in past years. The results will help you decide how hot, cold, wet, or windy it might be!

Date:

Astronomy

May. 21, 2014 Rise Set
Actual Time 5:28 AM MDT 7:59 PM MDT
Civil Twilight 4:57 AM MDT 8:29 PM MDT
Nautical Twilight 4:19 AM MDT 9:08 PM MDT
Astronomical Twilight 3:36 AM MDT 9:51 PM MDT
Moon 1:09 AM MDT (5/21) 12:45 PM MDT (5/21)
Length of Visible Light 15h 32m
Length of Day
14h 30m
Waning Gibbous, 48% of the Moon is Illuminated
May 21
Waning Gibbous
May 28
New
Jun 5
First Quarter
Jun 12
Full
Jun 19
Last Quarter

Hourly Weather History & Observations

Time (MDT) Temp. Dew Point Humidity Pressure Visibility Wind Dir Wind Speed Gust Speed Precip Events Conditions
12:53 AM 61.0 °F 51.1 °F 70% 29.80 in 10.0 mi East 15.0 mph - N/A   Clear
1:53 AM 59.0 °F 48.9 °F 69% 29.82 in 10.0 mi East 13.8 mph - N/A   Clear
2:53 AM 57.0 °F 46.0 °F 67% 29.87 in 10.0 mi East 9.2 mph - N/A   Clear
3:53 AM 52.0 °F 45.0 °F 77% 29.91 in 10.0 mi North 6.9 mph - N/A   Clear
4:53 AM 55.0 °F 46.0 °F 72% 29.94 in 10.0 mi North 9.2 mph - N/A   Mostly Cloudy
5:53 AM 55.0 °F 46.9 °F 74% 29.96 in 10.0 mi NNE 11.5 mph - N/A   Mostly Cloudy
6:53 AM 57.0 °F 46.9 °F 69% 29.98 in 10.0 mi NNE 12.7 mph - N/A   Clear
7:53 AM 61.0 °F 46.0 °F 58% 30.02 in 10.0 mi North 17.3 mph - N/A   Overcast
8:53 AM 64.9 °F 45.0 °F 48% 30.01 in 10.0 mi ENE 21.9 mph 26.5 mph N/A   Clear
9:53 AM 69.1 °F 46.0 °F 44% 29.99 in 10.0 mi East 17.3 mph 27.6 mph N/A   Clear
10:53 AM 73.0 °F 48.0 °F 41% 29.99 in 10.0 mi ENE 16.1 mph 24.2 mph N/A   Clear
11:53 AM 75.2 °F 50.0 °F 41% 30.11 in 10.0 mi ENE 15.0 mph 23.0 mph N/A   Clear
12:53 PM 78.1 °F 51.1 °F 39% 29.97 in 10.0 mi ENE 15.0 mph 24.2 mph N/A   Clear
1:53 PM 79.0 °F 50.0 °F 36% 29.96 in 10.0 mi East 20.7 mph 31.1 mph N/A   Clear
2:53 PM 81.0 °F 51.1 °F 35% 29.96 in 10.0 mi ESE 17.3 mph 27.6 mph N/A   Clear
3:53 PM 79.0 °F 50.0 °F 36% 29.97 in 10.0 mi East 20.7 mph - N/A   Clear
4:53 PM 78.1 °F 52.0 °F 40% 29.95 in 10.0 mi ESE 20.7 mph - N/A   Scattered Clouds
5:53 PM 75.0 °F 52.0 °F 44% 29.95 in 10.0 mi East 12.7 mph - N/A   Clear
6:53 PM 73.0 °F 53.1 °F 49% 29.95 in 10.0 mi East 10.4 mph - N/A   Overcast
7:19 PM 72.0 °F 55.0 °F 55% 30.06 in 10.0 mi East 9.2 mph - 0.00 in Rain , Thunderstorm Light Rain
7:34 PM 68.0 °F 57.0 °F 68% 30.07 in 10.0 mi SE 9.2 mph - 0.01 in Rain Light Rain
7:44 PM 68.0 °F 55.0 °F 63% 30.08 in 10.0 mi Variable 5.8 mph - 0.01 in Rain , Thunderstorm Light Rain
7:53 PM 69.1 °F 54.0 °F 58% 29.99 in 10.0 mi Variable 4.6 mph - 0.01 in Rain , Thunderstorm Light Rain
8:50 PM 62.6 °F 55.4 °F 77% 30.11 in 10.0 mi East 8.1 mph - 0.00 in   Scattered Clouds
8:53 PM 62.1 °F 55.9 °F 80% 30.03 in 10.0 mi ENE 6.9 mph - 0.00 in Thunderstorm Scattered Clouds
9:21 PM 60.1 °F 55.0 °F 83% 30.14 in 10.0 mi ENE 10.4 mph - N/A   Mostly Cloudy
9:53 PM 59.0 °F 55.0 °F 87% 30.06 in 10.0 mi NE 11.5 mph - N/A   Scattered Clouds
10:53 PM 59.0 °F 55.9 °F 90% 30.03 in 10.0 mi NE 15.0 mph - N/A   Clear
11:53 PM 57.0 °F 55.0 °F 93% 30.01 in 10.0 mi NE 9.2 mph - N/A   Clear